This demonstration page uses our WeatherBlox Daily Observations layout. Learn more.

Hourly Observations for August 11, 2017

Temp ( °F °C ) Dew Point ( °F °C ) Humidity (%) Winds ( mph kmh ) Pressure ( in mb ) Visibility ( mi km ) Precip ( " mm )
12:54 am 00:54 Cloudy 68 20 62 16.7 81 81 NW 3 6 30.11 1020 10 16.0934 0 0
1:54 am 01:54 Partly Cloudy 67 19.4 61 16.1 81 81 N 7 11 30.11 1020 10 16.0934 0 0
2:54 am 02:54 Clear 65 18.3 61 16.1 87 87 N 7 11 30.1 1019 10 16.0934 0.01 0.254
3:54 am 03:54 Clear 62 16.7 59 15 90 90 N 7 11 30.1 1019 10 16.0934 0 0
4:54 am 04:54 Clear 59 15 57 13.9 93 93 N 5 7 30.11 1020 10 16.0934 0 0
5:54 am 05:54 Clear 59 15 56 13.3 90 90 N 7 11 30.11 1020 10 16.0934 0 0
6:54 am 06:54 Sunny 58 14.4 56 13.3 93 93 N 3 6 30.13 1020 10 16.0934 0 0
7:54 am 07:54 Sunny 62 16.7 58 14.4 86 86 N 5 7 30.15 1021 10 16.0934 0 0
8:54 am 08:54 Sunny 66 18.9 60 15.6 81 81 Calm 30.16 1021 10 16.0934 0 0
9:54 am 09:54 Sunny 70 21.1 61 16.1 73 73 Calm 30.15 1021 10 16.0934 0 0
10:54 am 10:54 Sunny 74 23.3 61 16.1 64 64 N 7 11 30.15 1021 10 16.0934 0 0
11:54 am 11:54 Partly Cloudy 76 24.4 59 15 56 56 NNW 9 15 30.15 1021 10 16.0934 0 0
12:54 pm 12:54 Sunny 79 26.1 59 15 50 50 N 9 15 30.13 1020 10 16.0934 0 0
1:54 pm 13:54 Mostly Sunny 80 26.7 60 15.6 51 51 N 7 11 30.12 1020 10 16.0934 0 0
2:54 pm 14:54 Mostly Sunny 80 26.7 59 15 49 49 N 7 11 30.11 1020 10 16.0934 0 0
3:54 pm 15:54 Sunny 80 26.7 57 13.9 45 45 NE 9 15 30.09 1019 10 16.0934 0 0
4:54 pm 16:54 Sunny 81 27.2 58 14.4 45 45 NNE 9 15 30.07 1018 10 16.0934 0 0
5:54 pm 17:54 Sunny 81 27.2 57 13.9 44 44 NE 9 15 30.07 1018 10 16.0934 0 0
6:54 pm 18:54 Sunny 79 26.1 57 13.9 47 47 NE 8 13 30.06 1018 10 16.0934 0 0
7:54 pm 19:54 Sunny 75 23.9 59 15 58 58 NE 6 9 30.07 1018 10 16.0934 0 0
8:54 pm 20:54 Clear 71 21.7 58 14.4 63 63 NE 5 7 30.08 1019 10 16.0934 0 0
9:54 pm 21:54 Clear 67 19.4 61 16.1 81 81 N 3 6 30.09 1019 10 16.0934 0 0
10:54 pm 22:54 Clear 67 19.4 60 15.6 79 79 Calm 30.09 1019 10 16.0934 0 0
11:54 pm 23:54 Clear 62 16.7 58 14.4 86 86 N 5 7 30.09 1019 10 16.0934 0 0

Powered by AerisWeather